Regional Weather Roundup
Issued by NWS Sioux Falls, SD

Home | Current Version | Previous Version | Graphics & Text | Print | Product List | Glossary Off
Versions: 1 2 3 4 5 6 7 8 9 10 11 12 13 14 15 16 17 18 19 20 21 22 23 24 25 26 27 28 29 30 31 32 33 34 35 36 37 38 39 40 41 42 43 44 45 46 47 48 49 50

130
ASUS43 KFSD 231710
RWRFSD

WEATHER ROUNDUP FOR SE SOUTH DAKOTA/SW MINNESOTA/NW IOWA
NATIONAL WEATHER SERVICE SIOUX FALLS SD
1100 AM CST FRI FEB 23 2018

NOTE: "FAIR" INDICATES FEW OR NO CLOUDS BELOW 12,000 FEET WITH NO
SIGNIFICANT WEATHER AND OR OBSTRUCTIONS TO VISIBILITY.


SDZ038>040-050-052>070-231800-
SOUTHEAST SOUTH DAKOTA

CITY           SKY/WX    TMP DP  RH WIND       PRES   REMARKS
CHAMBERLAIN    LGT SNOW  10   8  92 SW7       30.29S WCI  -1
HURON          SUNNY     15  10  80 NW15      30.27S WCI   0
MADISON        FLURRIES  19  19 100 NW13      30.22R WCI   7
MITCHELL       CLOUDY    15  11  83 W10       30.29R WCI   2
SIOUX FALLS    CLOUDY    21  18  88 NW10      30.25R WCI  10
WINNER         FAIR      11   2  67 W9        30.28R WCI  -2
YANKTON        CLOUDY    21  17  84 W12       30.30R WCI   9
$$

MNZ071-072-080-081-089-090-097-098-231800-
SOUTHWEST MINNESOTA

CITY           SKY/WX    TMP DP  RH WIND       PRES   REMARKS
FAIRMONT       SUNNY     26  19  74 W13       30.23R WCI  15
JACKSON        SUNNY     23  18  80 W9        30.22R WCI  13
LUVERNE        CLOUDY    21  19  93 NW10      30.24S WCI  10
MARSHALL       SUNNY     24  18  77 NW16      30.21R WCI  11
MONTEVIDEO     PTSUNNY   28  21  74 N15G22    30.21R HAZE    WCI  17
PIPESTONE      CLOUDY    21  19  93 NW10      30.19R WCI  10
REDWOOD FALLS  CLOUDY    20  17  88 W10       30.21R FOG     WCI   9
TRACY          SUNNY     24  20  83 NW12G18   30.21R WCI  13
WORTHINGTON    MOSUNNY   25  19  78 W9        30.22R WCI  15
$$

IAZ001>003-012>014-020>022-031-032-NEZ013-014-SDZ071-231800-
NORTHWEST IOWA

CITY           SKY/WX    TMP DP  RH WIND       PRES   REMARKS
CHEROKEE       CLOUDY    21  19  93 NW7       30.27R WCI  13
DENISON        CLOUDY    23  21  93 NW9       30.30R WCI  13
ESTHERVILLE    SUNNY     22  17  81 W15       30.22R WCI   9
LE MARS        CLOUDY    19  18  93 NW9       30.29R WCI   9
ORANGE CITY    CLOUDY    19  18  93 NW9       30.26R WCI   9
SHELDON        CLOUDY    19  18  93 NW12      30.24R WCI   7
SIOUX CITY     CLOUDY    20  17  88 NW16      30.29S WCI   6
SPENCER        CLOUDY    22  17  81 NW13      30.23S WCI  10
STORM LAKE     MOSUNNY   19  18  93 NW14      30.24R WCI   6
$$

ABBREVIATIONS USED IN REMARKS
   TC - TEMPERATURE IN CELSIUS
  WCI - WIND CHILL INDEX
   HX - HEAT INDEX
  VSB - VISIBILITY





USA.gov is the U.S. government's official web portal to all federal, state and local government web resources and services.